| time (UTC) | temp F | wind direction | speed knots | gust knots | rain 1hr in | rain 24hr in | rain mn in | humidity % | barometer mb |
| 20260504151018 | 65 | 180 | 6.1 | 14.8 | 0.00 | 0.00 | 0.00 | 62 | 1008.5 |
| 20260504141018 | 62 | 180 | 4.3 | 9.6 | 0.00 | 0.00 | 0.00 | 63 | 1008.3 |
| 20260504081019 | 53 | 158 | 4.3 | 12.2 | 0.00 | 0.00 | 0.00 | 67 | 1010.1 |
| 20260504050018 | 53 | 180 | 5.2 | 11.3 | 0.00 | 0.00 | 0.00 | 63 | 1012.1 |
| 20260504045019 | 53 | 180 | 5.2 | 10.4 | 0.00 | 0.00 | 0.00 | 63 | 1012.2 |
| 20260504044019 | 53 | 180 | 6.1 | 10.4 | 0.00 | 0.00 | 0.00 | 64 | 1012.2 |
| 20260504043019 | 53 | 180 | 6.1 | 13.9 | 0.00 | 0.00 | 0.00 | 63 | 1012.3 |
| 20260504042039 | 53 | 158 | 5.2 | 12.2 | 0.00 | 0.00 | 0.00 | 64 | 1012.4 |
| 20260504041019 | 53 | 180 | 6.1 | 11.3 | 0.00 | 0.00 | 0.00 | 63 | 1012.4 |
| 20260504040019 | 53 | 180 | 6.1 | 12.2 | 0.00 | 0.00 | 0.00 | 62 | 1012.4 |
| 20260504035018 | 53 | 158 | 4.3 | 9.6 | 0.00 | 0.00 | 0.00 | 63 | 1012.6 |
| 20260504034018 | 53 | 180 | 6.1 | 12.2 | 0.00 | 0.00 | 0.00 | 63 | 1012.6 |
| 20260504033019 | 53 | 180 | 5.2 | 10.4 | 0.00 | 0.00 | 0.00 | 64 | 1012.8 |
| 20260504032018 | 53 | 180 | 5.2 | 10.4 | 0.00 | 0.00 | 0.00 | 65 | 1012.8 |
| 20260504031018 | 52 | 180 | 6.1 | 13.0 | 0.00 | 0.00 | 0.00 | 65 | 1012.9 |
| 20260504030018 | 52 | 180 | 6.1 | 10.4 | 0.00 | 0.00 | 0.00 | 67 | 1012.8 |
| 20260504025018 | 52 | 158 | 4.3 | 12.2 | 0.00 | 0.00 | 0.00 | 68 | 1013.0 |
| 20260504024018 | 51 | 180 | 6.1 | 10.4 | 0.00 | 0.00 | 0.00 | 69 | 1013.0 |
| 20260504023018 | 51 | 180 | 3.5 | 8.7 | 0.00 | 0.00 | 0.00 | 71 | 1012.9 |
| 20260504022018 | 50 | 180 | 4.3 | 8.7 | 0.00 | 0.00 | 0.00 | 73 | 1013.0 |
| 20260504021018 | 50 | 158 | 5.2 | 10.4 | 0.00 | 0.00 | 0.00 | 74 | 1013.0 |
| 20260504020020 | 50 | 158 | 5.2 | 9.6 | 0.00 | 0.00 | 0.00 | 75 | 1013.0 |
| 20260504015021 | 50 | 180 | 6.1 | 13.0 | 0.00 | 0.00 | 0.00 | 75 | 1013.2 |
| 20260504014020 | 49 | 158 | 4.3 | 10.4 | 0.00 | 0.00 | 0.00 | 76 | 1013.1 |
| 20260504013020 | 49 | 158 | 4.3 | 9.6 | 0.00 | 0.00 | 0.00 | 76 | 1013.1 |
| 20260504012018 | 49 | 158 | 4.3 | 8.7 | 0.00 | 0.00 | 0.00 | 76 | 1013.1 |
| 20260504011040 | 50 | 158 | 3.5 | 7.0 | 0.00 | 0.00 | 0.00 | 75 | 1013.1 |
| 20260504010040 | 50 | 158 | 2.6 | 6.1 | 0.00 | 0.00 | 0.00 | 75 | 1013.2 |
| 20260504005020 | 50 | 180 | 2.6 | 7.0 | 0.00 | 0.00 | 0.00 | 74 | 1013.2 |
| 20260504004040 | 51 | 158 | 2.6 | 7.0 | 0.00 | 0.00 | 0.00 | 73 | 1013.3 |
| 20260504003018 | 51 | 158 | 4.3 | 7.8 | 0.00 | 0.00 | 0.00 | 72 | 1013.2 |
| 20260504002020 | 51 | 158 | 3.5 | 7.8 | 0.00 | 0.00 | 0.00 | 72 | 1013.2 |
| 20260504001020 | 51 | 180 | 2.6 | 4.3 | 0.00 | 0.00 | 0.00 | 71 | 1013.2 |
| 20260504000020 | 51 | 180 | 3.5 | 5.2 | 0.00 | 0.00 | 0.00 | 71 | 1013.1 |
| 20260503235020 | 52 | 180 | 3.5 | 7.0 | 0.00 | 0.00 | 0.00 | 70 | 1013.2 |
| 20260503234020 | 52 | 135 | 2.6 | 6.1 | 0.00 | 0.00 | 0.00 | 70 | 1013.4 |
| 20260503233519 | 52 | 180 | 2.6 | 6.1 | 0.00 | 0.00 | 0.00 | 69 | 1013.4 |
| 20260503232519 | 52 | 180 | 2.6 | 6.1 | 0.00 | 0.00 | 0.00 | 69 | 1013.5 |
| 20260503231519 | 52 | 180 | 5.2 | 8.7 | 0.00 | 0.00 | 0.00 | 69 | 1013.6 |
| 20260503230519 | 52 | 203 | 4.3 | 10.4 | 0.00 | 0.00 | 0.00 | 68 | 1013.7 |
| 20260503225519 | 52 | 270 | 5.2 | 11.3 | 0.00 | 0.00 | 0.00 | 67 | 1014.1 |
| 20260503224518 | 53 | 203 | 4.3 | 12.2 | 0.00 | 0.00 | 0.00 | 65 | 1014.1 |
| 20260503223519 | 54 | 270 | 7.0 | 14.8 | 0.00 | 0.00 | 0.00 | 63 | 1014.1 |
| 20260503222558 | 54 | 270 | 5.2 | 11.3 | 0.00 | 0.00 | 0.00 | 64 | 1014.2 |
| 20260503221519 | 55 | 270 | 7.8 | 16.5 | 0.00 | 0.00 | 0.00 | 62 | 1014.2 |
| 20260503220558 | 56 | 270 | 9.6 | 20.0 | 0.00 | 0.00 | 0.00 | 60 | 1014.2 |
| 20260503215518 | 57 | 270 | 10.4 | 22.6 | 0.00 | 0.00 | 0.00 | 57 | 1014.0 |
| 20260503214518 | 60 | 270 | 7.8 | 22.6 | 0.00 | 0.00 | 0.00 | 44 | 1013.8 |
| 20260503213518 | 60 | 270 | 6.1 | 16.5 | 0.00 | 0.00 | 0.00 | 43 | 1013.9 |
| 20260503212559 | 61 | 248 | 7.0 | 15.6 | 0.00 | 0.00 | 0.00 | 42 | 1013.8 |
| 20260503211519 | 61 | 225 | 6.1 | 13.0 | 0.00 | 0.00 | 0.00 | 41 | 1013.9 |
| 20260503210518 | 61 | 270 | 8.7 | 17.4 | 0.00 | 0.00 | 0.00 | 41 | 1014.1 |
| 20260503205538 | 61 | 270 | 7.8 | 16.5 | 0.00 | 0.00 | 0.00 | 42 | 1014.1 |
| 20260503204518 | 61 | 225 | 7.0 | 15.6 | 0.00 | 0.00 | 0.00 | 41 | 1014.2 |
| 20260503203518 | 60 | 225 | 7.8 | 18.2 | 0.00 | 0.00 | 0.00 | 42 | 1014.3 |
| 20260503202518 | 61 | 293 | 6.1 | 17.4 | 0.00 | 0.00 | 0.00 | 41 | 1014.4 |
| 20260503201518 | 62 | 270 | 6.1 | 13.9 | 0.00 | 0.00 | 0.00 | 42 | 1014.4 |
| 20260503200538 | 61 | 225 | 4.3 | 10.4 | 0.00 | 0.00 | 0.00 | 42 | 1014.6 |
| 20260503195558 | 61 | 225 | 7.0 | 16.5 | 0.00 | 0.00 | 0.00 | 40 | 1014.7 |
| 20260503194539 | 62 | 293 | 6.1 | 18.2 | 0.00 | 0.00 | 0.00 | 40 | 1014.9 |
| 20260503193519 | 62 | 270 | 6.1 | 15.6 | 0.00 | 0.00 | 0.00 | 41 | 1015.0 |
| 20260503192518 | 62 | 270 | 5.2 | 13.0 | 0.00 | 0.00 | 0.00 | 42 | 1015.2 |
| 20260503191518 | 63 | 248 | 6.1 | 16.5 | 0.00 | 0.00 | 0.00 | 41 | 1015.3 |
| 20260503190518 | 62 | 203 | 8.7 | 20.0 | 0.00 | 0.00 | 0.00 | 40 | 1015.5 |
| 20260503185518 | 62 | 225 | 8.7 | 17.4 | 0.00 | 0.00 | 0.00 | 39 | 1015.7 |
| 20260503184520 | 62 | 225 | 7.8 | 22.6 | 0.00 | 0.00 | 0.00 | 41 | 1015.8 |
| 20260503183518 | 63 | 248 | 6.1 | 16.5 | 0.00 | 0.00 | 0.00 | 40 | 1016.0 |
| 20260503182518 | 62 | 270 | 7.8 | 17.4 | 0.00 | 0.00 | 0.00 | 38 | 1016.0 |
| 20260503181518 | 62 | 270 | 7.0 | 16.5 | 0.00 | 0.00 | 0.00 | 41 | 1016.1 |
| 20260503180518 | 62 | 270 | 6.1 | 13.0 | 0.00 | 0.00 | 0.00 | 43 | 1016.2 |
| 20260503175518 | 61 | 293 | 6.1 | 15.6 | 0.00 | 0.00 | 0.00 | 42 | 1016.4 |
| 20260503174518 | 63 | 270 | 5.2 | 12.2 | 0.00 | 0.00 | 0.00 | 41 | 1016.6 |
| 20260503173540 | 61 | 270 | 8.7 | 20.9 | 0.00 | 0.00 | 0.00 | 39 | 1016.6 |
| 20260503172518 | 62 | 270 | 7.0 | 14.8 | 0.00 | 0.00 | 0.00 | 41 | 1016.7 |
| 20260503171520 | 62 | 270 | 6.1 | 17.4 | 0.00 | 0.00 | 0.00 | 42 | 1016.9 |
| 20260503170518 | 61 | 270 | 6.1 | 15.6 | 0.00 | 0.00 | 0.00 | 42 | 1017.0 |